1498125600.15,495,20.5,74238.0,19.89,-17.97,-18.83,0,*46
1498125601.4,496,20.5,74234.8,19.89,-19.71,-20.49,0,*4E
1498125602.62,497,20.5,74236.0,19.87,-17.45,-18.21,0,*4D
1498125603.81,498,20.5,74238.3,19.87,-17.31,-18.21,0,*41
1498125605.05,499,20.5,74238.5,19.89,-18.25,-19.27,0,*43
1498125606.32,500,20.5,74238.0,19.89,-17.45,-18.35,0,*49
1498125607.54,501,20.5,74234.3,19.91,-16.27,-16.83,0,*47
1498125608.81,502,20.5,74236.8,19.93,-16.09,-17.21,0,*43
1498125610.08,503,20.5,74238.0,19.93,-15.89,-16.65,0,*48
1498125611.32,504,20.5,74236.3,19.95,-15.35,-15.89,0,*4F
1498125612.57,505,20.5,74240.3,20.01,-16.41,-17.41,0,*4F
1498125613.78,506,20.5,74238.5,20.01,-17.87,-18.83,0,*46
1498125615.03,507,20.5,74236.8,20.01,-17.45,-18.73,0,*46
1498125616.28,508,20.5,74234.0,20.05,-17.21,-18.11,0,*4B
1498125617.48,509,20.5,74232.0,20.03,-16.79,-17.69,0,*40
1498125618.66,510,20.5,74232.3,20.03,-18.07,-18.99,0,*4F
1498125619.94,511,20.5,74232.0,20.05,-16.17,-17.07,0,*4F
1498125621.21,512,20.5,74234.8,20.05,-15.43,-16.31,0,*4A
1498125622.45,513,20.5,74232.5,20.07,-15.39,-16.13,0,*44
1498125623.72,514,20.5,74238.3,20.09,-15.35,-16.09,0,*4A
1498125624.97,515,20.5,74238.3,20.11,-16.09,-17.03,0,*45
1498125626.17,516,20.5,74236.0,20.15,-15.75,-16.79,0,*46
1498125627.42,517,20.5,74232.0,20.13,-15.43,-16.37,0,*4E
1498125628.63,518,20.5,74234.5,20.17,-17.31,-18.41,0,*4D
1498125629.84,519,20.5,74236.3,20.15,-17.93,-19.03,0,*41
1498125631.05,520,20.5,74234.5,20.15,-16.41,-17.35,0,*4E
1498125632.29,521,20.5,74236.8,20.17,-16.03,-17.17,0,*4B
1498125633.51,522,20.5,74236.0,20.17,-15.25,-15.99,0,*4B
1498125634.73,523,20.5,74236.5,20.25,-14.61,-15.49,0,*47
1498125635.97,524,20.5,74236.3,20.23,-15.57,-16.51,0,*48
1498125637.19,525,20.5,74236.8,20.25,-16.83,-17.83,0,*4B
1498125638.45,526,20.5,74236.3,20.25,-16.31,-17.21,0,*49
1498125639.69,527,20.5,74236.3,20.27,-16.17,-17.17,0,*4B
1498125640.87,528,20.5,74238.8,20.27,-15.99,-16.79,0,*48
1498125642.09,529,20.5,74238.5,20.27,-15.63,-16.51,0,*46
1498125643.31,530,20.5,74238.0,20.29,-14.79,-15.53,0,*4B
1498125644.53,531,20.5,74238.5,20.33,-15.53,-16.65,0,*4E
1498125645.72,532,20.5,74238.5,20.33,-17.31,-18.17,0,*40
1498125646.97,533,20.5,74238.5,20.33,-16.51,-17.45,0,*4E
1498125648.18,534,20.5,74240.8,20.35,-17.49,-18.41,0,*4C
1498125649.42,535,20.5,74236.8,20.35,-17.93,-18.83,0,*44
1498125650.62,536,20.5,74238.8,20.33,-18.65,-19.71,0,*4B
1498125651.83,537,20.5,74236.0,20.33,-17.41,-18.25,0,*43
1498125653.05,538,20.5,74240.0,20.33,-18.89,-19.95,0,*4D
1498125654.31,539,20.5,74234.5,20.31,-20.59,-21.83,0,*44
1498125655.56,540,20.5,74236.8,20.27,-19.61,-20.53,0,*40
1498125656.81,541,20.5,74238.0,20.25,-19.85,-20.89,0,*4E
1498125658.06,542,20.5,74238.5,20.25,-18.89,-19.85,0,*46
1498125659.26,543,20.5,74240.3,20.23,-18.49,-19.51,0,*44
1498125660.48,544,20.5,74244.0,20.21,-19.71,-20.93,0,*4F
1498125661.7,545,20.5,74244.8,20.23,-19.31,-20.43,0,*45
1498125662.94,546,20.5,74248.0,20.21,-18.49,-19.61,0,*40
1498125664.21,547,20.5,74248.0,20.21,-18.93,-20.15,0,*4F
1498125665.43,548,20.5,74250.0,20.17,-19.03,-20.05,0,*4C
1498125666.65,549,20.5,74250.3,20.15,-17.97,-18.99,0,*42
1498125667.85,550,20.5,74252.5,20.15,-17.83,-18.73,0,*4B
1498125669.09,551,20.5,74252.3,20.17,-17.63,-18.73,0,*46
1498125670.33,552,20.5,74248.8,20.17,-17.17,-18.25,0,*45
1498125671.59,553,20.5,74250.8,20.21,-19.27,-20.43,0,*47
1498125672.83,554,20.5,74248.3,20.17,-18.73,-19.81,0,*41
1498125674.04,555,20.5,74244.0,20.17,-18.49,-19.51,0,*44
1498125675.29,556,20.5,74248.0,20.17,-19.17,-20.19,0,*4B
1498125676.51,557,20.5,74242.3,20.17,-17.35,-18.25,0,*40
1498125677.74,558,20.5,74242.8,20.17,-17.69,-18.59,0,*4D
1498125678.96,559,20.5,74242.5,20.17,-17.83,-18.73,0,*40
1498125680.17,560,20.5,74240.8,20.21,-17.31,-18.17,0,*44
1498125681.37,561,20.5,74242.8,20.23,-17.69,-18.59,0,*40
1498125682.59,562,20.5,74240.3,20.23,-17.59,-18.49,0,*41
1498125683.8,563,20.5,74246.0,20.23,-16.09,-16.93,0,*4D
1498125685.05,564,20.5,74246.8,20.23,-16.69,-17.45,0,*46
1498125686.26,565,20.5,74244.0,20.27,-15.39,-16.03,0,*46
1498125687.52,566,20.5,74250.0,20.31,-15.29,-16.17,0,*46
1498125688.77,567,20.5,74246.0,20.31,-16.41,-17.41,0,*48
1498125690.02,568,20.5,74244.0,20.33,-16.69,-17.55,0,*4A
1498125691.24,569,20.5,74242.8,20.33,-15.81,-16.55,0,*4F
1498125692.48,570,20.5,74242.5,20.35,-18.07,-18.89,0,*4D
1498125693.73,571,20.5,74236.3,20.35,-16.75,-17.63,0,*4C
1498125694.94,572,20.5,74242.3,20.37,-17.45,-18.25,0,*42
1498125696.12,573,20.5,74242.5,20.37,-18.17,-19.07,0,*4A
1498125697.38,574,20.5,74240.8,20.37,-19.27,-20.35,0,*44
1498125698.64,575,20.5,74244.0,20.35,-20.19,-21.33,0,*47
1498125699.85,576,20.5,74240.5,20.31,-20.09,-21.43,0,*46
1498125701.05,577,20.5,74246.8,20.29,-20.63,-21.77,0,*45
1498125702.26,578,20.5,74244.0,20.25,-20.73,-21.93,0,*4D
1498125703.5,579,20.5,74240.5,20.25,-19.41,-20.63,0,*49
1498125704.75,580,20.5,74240.8,20.25,-21.17,-22.31,0,*42
1498125705.96,581,20.5,74240.8,20.21,-20.63,-21.63,0,*41
1498125707.19,582,20.5,74238.5,20.21,-20.35,-21.43,0,*43
1498125708.43,583,20.5,74236.8,20.17,-20.39,-21.33,0,*4C
1498125709.65,584,20.5,74242.8,20.17,-18.49,-19.47,0,*4F
1498125710.9,585,20.5,74242.5,20.17,-20.59,-21.83,0,*47
1498125712.12,586,20.5,74240.0,20.15,-22.11,-23.49,0,*4C
1498125713.33,587,20.5,74240.5,20.11,-23.33,-24.57,0,*40
1498125714.56,588,20.5,74246.8,20.07,-22.93,-24.21,0,*42
1498125715.8,589,20.5,74242.0,20.05,-22.41,-23.53,0,*4C
1498125717.01,590,20.5,74244.3,20.03,-22.03,-23.19,0,*4A
1498125718.26,591,20.5,74240.8,20.01,-21.23,-22.07,0,*46
1498125719.48,592,20.5,74240.5,19.99,-19.91,-20.99,0,*49
1498125720.7,593,20.5,74240.0,19.99,-18.35,-19.17,0,*4B
1498125721.89,594,20.5,74242.5,19.99,-18.07,-18.99,0,*4A
1498125723.14,595,20.5,74246.5,20.03,-17.45,-18.35,0,*4D
1498125724.38,596,20.5,74242.8,20.03,-17.03,-17.93,0,*4F
1498125725.57,597,20.5,74242.8,20.07,-16.45,-17.31,0,*41
1498125726.82,598,20.5,74246.5,20.09,-16.55,-17.41,0,*46
1498125728.03,599,20.5,74246.0,20.09,-16.41,-17.31,0,*45
1498125729.25,600,20.5,74242.5,20.13,-16.03,-16.93,0,*42
1498125730.49,601,20.5,74246.5,20.11,-15.57,-16.27,0,*4C
1498125731.71,602,20.5,74244.3,20.15,-16.65,-17.49,0,*40
1498125732.98,603,20.5,74246.0,20.17,-16.27,-17.03,0,*4B
1498125734.24,604,20.5,74246.3,20.21,-16.69,-17.63,0,*45
1498125735.47,605,20.5,74240.3,20.23,-17.25,-18.11,0,*45
1498125736.68,606,20.5,74244.0,20.23,-17.55,-18.41,0,*44
1498125737.95,607,20.5,74242.8,20.25,-17.41,-18.31,0,*41
1498125739.22,608,20.5,74246.8,20.25,-18.31,-19.31,0,*47
1498125740.44,609,20.5,74248.0,20.25,-19.03,-19.95,0,*48
1498125741.66,610,20.5,74244.5,20.25,-19.51,-20.73,0,*45
1498125742.88,611,20.5,74252.3,20.21,-20.43,-21.47,0,*4F
1498125744.14,612,20.5,74250.8,20.21,-19.41,-20.19,0,*4E
1498125745.41,613,20.5,74242.3,20.21,-22.17,-23.33,0,*4F
1498125746.63,614,20.5,74232.5,20.15,-22.73,-24.05,0,*4F
1498125747.85,615,20.5,74234.8,20.11,-24.15,-25.61,0,*4F
1498125749.1,616,20.5,74234.5,20.05,-22.93,-24.25,0,*40
1498125750.34,617,20.5,74236.5,20.01,-22.83,-23.99,0,*44
1498125751.54,618,20.5,74234.0,19.99,-23.09,-24.31,0,*46
1498125752.79,619,20.5,74234.0,19.93,-21.53,-22.63,0,*41
1498125754.01,620,20.5,74230.8,19.93,-22.57,-23.75,0,*4A
1498125755.26,621,20.5,74228.0,19.89,-20.99,-22.11,0,*43
1498125756.5,622,20.5,74230.3,19.89,-18.99,-19.85,0,*4E
1498125757.7,623,20.5,74234.0,19.91,-19.51,-20.73,0,*40
1498125758.95,624,20.5,74242.0,19.91,-19.27,-20.35,0,*44
1498125760.16,625,20.5,74242.3,19.89,-20.05,-21.13,0,*43
1498125761.41,626,20.5,74240.3,19.89,-19.71,-20.83,0,*41
1498125762.63,627,20.5,74242.3,19.89,-18.99,-20.05,0,*49
1498125763.87,628,20.5,74242.8,19.89,-18.25,-19.31,0,*4C
1498125765.11,629,20.5,74240.3,19.89,-17.49,-18.55,0,*4B
1498125766.33,630,20.5,74236.0,19.91,-17.93,-19.13,0,*4E
1498125767.57,631,20.5,74236.0,19.93,-17.25,-18.11,0,*43
1498125768.79,632,20.5,74240.0,19.95,-17.21,-18.17,0,*44
1498125770.04,633,20.5,74238.0,19.99,-18.35,-19.41,0,*41
1498125771.23,634,20.5,74236.0,19.99,-18.25,-19.17,0,*44
1498125772.47,635,20.5,74238.3,20.01,-16.97,-17.93,0,*4B
1498125773.71,636,20.5,74238.5,20.01,-17.31,-18.35,0,*46
1498125774.93,637,20.56,74242.3,20.01,-16.89,-17.73,0,*48
1498125776.17,638,20.5,74236.3,20.03,-16.69,-17.59,0,*43
1498125777.4,639,20.5,74238.0,20.05,-16.83,-17.87,0,*43
1498125778.64,640,20.5,74238.0,20.09,-16.13,-16.93,0,*4C
1498125779.88,641,20.5,74236.5,20.09,-15.81,-16.75,0,*4D
1498125781.09,642,20.5,74236.8,20.11,-15.99,-17.03,0,*4E
1498125782.36,643,20.5,74234.5,20.13,-15.43,-16.23,0,*49
1498125783.58,644,20.5,74240.0,20.15,-15.15,-16.13,0,*48
1498125784.83,645,20.5,74236.5,20.17,-16.41,-17.45,0,*4B
1498125786.07,646,20.5,74238.3,20.21,-15.85,-16.83,0,*4D
1498125787.32,647,20.5,74236.3,20.25,-15.95,-17.07,0,*44
1498125788.55,648,20.5,74238.5,20.25,-16.93,-18.01,0,*47
1498125789.77,649,20.5,74238.8,20.27,-16.75,-17.63,0,*47
1498125791.0,650,20.5,74242.8,20.27,-17.79,-18.89,0,*49
1498125792.24,651,20.5,74242.5,20.25,-16.93,-18.01,0,*4F
1498125793.46,652,20.56,74244.0,20.27,-15.43,-16.41,0,*4A
1498125794.68,653,20.5,74236.8,20.31,-15.15,-16.03,0,*49
1498125795.88,654,20.5,74236.5,20.33,-14.33,-15.29,0,*42
1498125797.16,655,20.5,74238.3,20.39,-14.43,-15.35,0,*43
1498125798.43,656,20.5,74238.5,20.39,-14.83,-15.85,0,*47
1498125799.65,657,20.5,74236.0,20.47,-15.15,-16.03,0,*4C
1498125800.88,658,20.5,74238.8,20.47,-15.63,-16.75,0,*43
1498125802.09,659,20.5,74240.3,20.49,-15.67,-16.69,0,*45
1498125803.33,660,20.56,74242.8,20.47,-18.55,-20.05,0,*42
1498125804.54,661,20.5,74236.8,20.49,-17.73,-19.31,0,*4B
1498125805.77,662,20.5,74240.3,20.49,-14.83,-15.95,0,*46
1498125806.98,663,20.5,74240.5,20.51,-15.07,-16.03,0,*4F
1498125808.21,664,20.5,74240.0,20.53,-17.11,-18.35,0,*44
1498125809.4,665,20.5,74238.8,20.53,-18.65,-19.71,0,*48
1498125810.62,666,20.56,74242.3,20.53,-17.25,-18.17,0,*41
1498125811.82,667,20.5,74236.5,20.53,-17.69,-18.89,0,*4F
1498125813.06,668,20.56,74242.3,20.53,-19.57,-20.79,0,*47
1498125814.3,669,20.5,74238.8,20.51,-17.17,-18.17,0,*4D
1498125815.52,670,20.5,74238.3,20.51,-16.97,-18.21,0,*49
1498125816.78,671,20.56,74240.5,20.51,-16.51,-17.41,0,*4B
1498125817.99,672,20.5,74242.5,20.53,-15.81,-16.97,0,*4E
1498125819.21,673,20.5,74242.5,20.53,-15.81,-16.83,0,*4A
1498125820.45,674,20.5,74240.3,20.55,-15.89,-16.83,0,*43
1498125821.64,675,20.5,74242.8,20.57,-15.67,-16.59,0,*47
1498125822.86,676,20.56,74242.8,20.59,-15.25,-15.99,0,*43
1498125824.07,677,20.56,74240.0,20.63,-14.97,-15.71,0,*45
1498125825.32,678,20.56,74242.3,20.67,-16.17,-17.07,0,*47
1498125826.52,679,20.5,74240.5,20.67,-15.71,-16.75,0,*41
1498125827.79,680,20.5,74242.3,20.69,-16.27,-17.21,0,*49
1498125829.01,681,20.5,74240.5,20.71,-15.63,-16.65,0,*43
1498125830.25,682,20.5,74238.8,20.71,-15.39,-16.13,0,*4E
1498125831.5,683,20.5,74240.5,20.75,-14.55,-15.43,0,*46
1498125832.71,684,20.56,74240.5,20.75,-15.01,-15.95,0,*4A
1498125833.95,685,20.56,74242.0,20.79,-16.27,-17.25,0,*49
1498125835.17,686,20.5,74240.0,20.77,-15.71,-16.59,0,*4E
1498125836.37,687,20.5,74240.5,20.79,-15.67,-16.59,0,*46
1498125837.63,688,20.5,74242.5,20.81,-15.35,-16.23,0,*44
1498125838.87,689,20.5,74242.8,20.83,-15.89,-16.65,0,*42
1498125840.08,690,20.5,74240.8,20.83,-16.93,-18.01,0,*4E
1498125841.34,691,20.5,74242.5,20.81,-19.57,-20.79,0,*4E
1498125842.56,692,20.56,74244.8,20.81,-18.65,-19.99,0,*49
1498125843.76,693,20.5,74242.5,20.81,-17.73,-18.79,0,*4F
1498125845.01,694,20.56,74246.3,20.79,-16.69,-17.59,0,*48
1498125846.22,695,20.5,74246.0,20.79,-16.37,-17.17,0,*48
1498125847.46,696,20.5,74242.3,20.81,-15.63,-16.51,0,*4D
1498125848.65,697,20.5,74242.5,20.83,-15.95,-16.97,0,*4D
1498125849.86,698,20.56,74242.8,20.83,-16.93,-17.97,0,*46
1498125851.08,699,20.56,74244.3,20.83,-17.41,-18.45,0,*49
1498125852.27,700,20.5,74244.3,20.83,-15.49,-16.37,0,*49
1498125853.54,701,20.56,74246.3,20.85,-16.13,-17.07,0,*40
1498125854.74,702,20.56,74244.0,20.89,-18.07,-18.99,0,*4C
1498125855.96,703,20.56,74244.0,20.89,-18.69,-19.75,0,*46
1498125857.22,704,20.56,74246.0,20.89,-18.55,-19.61,0,*4B
1498125858.43,705,20.56,74244.5,20.81,-17.83,-18.73,0,*44
1498125859.67,706,20.5,74242.8,20.85,-15.25,-16.27,0,*42
1498125860.91,707,20.56,74250.0,20.85,-15.99,-17.07,0,*47
1498125862.18,708,20.56,74250.0,20.89,-17.41,-18.31,0,*49
1498125863.4,709,20.56,74246.5,20.89,-17.79,-18.83,0,*4A
1498125864.64,710,20.56,74250.3,20.85,-17.21,-18.07,0,*4F
1498125865.88,711,20.5,74244.3,20.89,-15.85,-16.75,0,*45
1498125867.12,712,20.56,74246.3,20.93,-17.97,-18.93,0,*4A
1498125868.31,713,20.5,74246.5,20.91,-16.59,-17.49,0,*42
1498125869.52,714,20.5,74244.8,20.91,-16.45,-17.45,0,*44
1498125870.72,715,20.56,74246.0,20.91,-18.83,-19.99,0,*4E
1498125871.93,716,20.56,74244.0,20.91,-18.69,-19.61,0,*4E
1498125873.14,717,20.56,74248.3,20.91,-17.59,-18.49,0,*48
1498125874.38,718,20.56,74244.8,20.91,-17.93,-18.93,0,*46
1498125875.59,719,20.56,74246.0,20.91,-17.93,-18.83,0,*46
1498125876.81,720,20.56,74246.8,20.91,-16.59,-17.59,0,*43
1498125878.02,721,20.56,74244.3,20.93,-15.81,-16.79,0,*45
1498125879.26,722,20.56,74244.3,20.93,-15.43,-16.31,0,*44
1498125880.52,723,20.56,74244.8,20.95,-15.85,-16.65,0,*48
1498125881.76,724,20.56,74246.8,20.97,-15.85,-16.65,0,*4D
1498125882.99,725,20.56,74244.0,20.97,-15.39,-16.27,0,*4D
1498125884.21,726,20.56,74246.0,21.01,-15.35,-16.55,0,*49
1498125885.39,727,20.56,74246.0,21.01,-16.79,-17.73,0,*46
1498125886.6,728,20.5,74242.8,21.03,-15.15,-15.99,0,*44
1498125887.79,729,20.56,74248.8,21.05,-14.29,-15.15,0,*49
1498125888.98,730,20.56,74246.5,21.05,-14.61,-15.29,0,*42
1498125890.22,731,20.56,74246.3,21.13,-16.17,-17.07,0,*49
1498125891.43,732,20.56,74242.5,21.13,-17.11,-18.11,0,*45
1498125892.66,733,20.56,74244.3,21.13,-16.31,-17.21,0,*4B
1498125893.92,734,20.56,74244.8,21.15,-15.01,-15.85,0,*46
1498125895.18,735,20.56,74250.0,21.15,-15.35,-16.09,0,*47
1498125896.39,736,20.56,74246.5,21.17,-15.71,-16.69,0,*40
1498125897.6,737,20.56,74244.3,21.19,-17.31,-18.07,0,*4F
1498125898.78,738,20.56,74250.3,21.21,-15.99,-16.97,0,*4C
1498125899.98,739,20.56,74250.5,21.17,-17.79,-18.69,0,*4B
1498125901.17,740,20.56,74248.3,21.17,-18.21,-19.17,0,*4F
1498125902.39,741,20.56,74250.0,21.17,-18.35,-19.17,0,*4B
1498125903.56,742,20.56,74246.8,21.17,-18.11,-18.99,0,*49
1498125904.75,743,20.56,74250.8,21.17,-17.49,-18.41,0,*4F
1498125905.95,744,20.56,74248.5,21.17,-17.79,-18.65,0,*4D
1498125907.19,745,20.56,74248.0,21.15,-18.83,-19.81,0,*4F
1498125908.4,746,20.56,74250.8,21.17,-18.79,-19.85,0,*4F
1498125909.62,747,20.56,74246.5,21.13,-20.43,-21.67,0,*4F
1498125910.86,748,20.56,74248.3,21.11,-21.23,-22.37,0,*43
1498125912.07,749,20.56,74248.3,21.07,-19.99,-21.13,0,*4A
1498125913.25,750,20.56,74248.5,21.05,-19.51,-20.69,0,*48
1498125914.49,751,20.56,74248.3,21.03,-18.59,-19.51,0,*47
1498125915.69,752,20.56,74250.8,21.03,-18.17,-19.03,0,*49
1498125916.87,753,20.56,74248.0,21.01,-17.87,-18.79,0,*40
1498125918.1,754,20.56,74250.0,21.03,-17.93,-18.83,0,*45
1498125919.34,755,20.56,74248.0,21.03,-17.07,-17.83,0,*46
1498125920.55,756,20.56,74248.0,21.05,-17.21,-18.07,0,*44
1498125921.76,757,20.5,74248.3,21.05,-18.07,-19.31,0,*4A
1498125922.97,758,20.56,74248.0,21.05,-19.23,-20.29,0,*41
1498125924.23,759,20.56,74250.8,21.03,-20.53,-21.53,0,*47
1498125925.45,760,20.56,74248.3,21.01,-21.03,-22.11,0,*4E
1498125926.66,761,20.56,74248.5,20.99,-18.99,-20.05,0,*41
1498125927.87,762,20.56,74254.0,20.97,-18.59,-19.51,0,*4B
1498125929.11,763,20.56,74250.5,20.99,-18.07,-18.93,0,*40
1498125930.35,764,20.56,74248.3,20.99,-19.75,-20.79,0,*4C
1498125931.59,765,20.56,74248.0,20.95,-19.65,-20.69,0,*41
1498125932.8,766,20.56,74250.5,20.95,-20.09,-21.13,0,*4E
1498125934.07,767,20.56,74252.0,20.95,-21.67,-22.77,0,*47
1498125935.31,768,20.56,74252.3,20.91,-24.83,-26.13,0,*45
1498125936.55,769,20.56,74254.0,20.81,-22.77,-23.75,0,*4D
1498125937.79,770,20.56,74244.8,20.81,-19.23,-20.09,0,*44
1498125939.03,771,20.56,74250.3,20.81,-20.63,-21.83,0,*48
1498125940.25,772,20.56,74250.5,20.79,-23.03,-24.31,0,*45
1498125941.52,773,20.56,74250.3,20.73,-25.75,-26.77,0,*49
1498125942.76,774,20.56,74248.3,20.69,-20.99,-21.77,0,*45
1498125944.01,775,20.56,74242.3,20.69,-19.61,-20.05,0,*4D
1498125945.27,776,20.56,74242.5,20.69,-17.79,-18.55,0,*47
1498125946.5,777,20.56,74244.5,20.69,-24.51,-25.87,0,*4D
1498125947.74,778,20.56,74240.5,20.63,-25.55,-26.93,0,*4B
1498125948.98,779,20.56,74240.8,20.59,-22.83,-24.11,0,*47
1498125950.2,780,20.56,74238.8,20.55,-21.17,-22.27,0,*40
1498125951.41,781,20.56,74238.5,20.53,-22.17,-23.13,0,*42
1498125952.63,782,20.56,74240.8,20.53,-22.37,-23.29,0,*4A
1498125953.81,783,20.56,74238.8,20.49,-20.25,-21.13,0,*4A
1498125955.02,784,20.56,74236.8,20.49,-21.17,-22.21,0,*4F
1498125956.21,785,20.56,74240.5,20.49,-21.13,-22.11,0,*49
1498125957.42,786,20.56,74238.5,20.49,-20.49,-21.43,0,*40
1498125958.67,787,20.56,74240.3,20.47,-18.31,-18.99,0,*46
1498125959.88,788,20.56,74242.8,20.51,-17.87,-18.65,0,*4F
1498125961.11,789,20.56,74242.8,20.51,-20.79,-21.73,0,*46
1498125962.35,790,20.56,74244.8,20.51,-21.27,-22.37,0,*47
1498125963.58,791,20.56,74250.8,20.47,-22.63,-23.53,0,*41
1498125964.8,792,20.56,74250.3,20.45,-21.23,-22.41,0,*45
1498125966.04,793,20.56,74244.5,20.39,-20.99,-22.03,0,*49
1498125967.28,794,20.56,74248.0,20.39,-21.27,-22.41,0,*4C
1498125968.5,795,20.56,74244.8,20.39,-22.03,-23.13,0,*4E
1498125969.71,796,20.56,74240.3,20.37,-22.07,-23.19,0,*4D
1498125970.96,797,20.56,74242.5,20.35,-24.15,-25.39,0,*4F
1498125972.18,798,20.56,74246.0,20.29,-22.97,-24.21,0,*49
1498125973.42,799,20.56,74248.5,20.29,-23.53,-24.67,0,*43
1498125974.64,800,20.56,74252.3,20.23,-24.87,-26.39,0,*41
1498125975.89,801,20.56,74252.5,20.21,-24.41,-25.65,0,*42
1498125977.09,802,20.56,74250.0,20.15,-25.35,-26.65,0,*47
1498125978.33,803,20.56,74244.0,20.11,-23.33,-24.41,0,*46
1498125979.57,804,20.56,74250.3,20.09,-24.83,-26.23,0,*42
1498125980.79,805,20.56,74250.0,20.03,-27.29,-28.63,0,*40
1498125982.02,806,20.56,74250.0,19.99,-26.81,-27.93,0,*49
1498125983.21,807,20.56,74250.5,19.91,-26.61,-28.15,0,*4F
1498125984.46,808,20.56,74252.8,19.85,-26.03,-27.23,0,*4B
1498125985.64,809,20.56,74246.5,19.83,-24.93,-26.07,0,*40
1498125986.88,810,20.56,74244.8,19.83,-23.19,-24.15,0,*4C
1498125988.13,811,20.56,74246.5,19.81,-21.87,-22.83,0,*43
1498125989.41,812,20.56,74246.8,19.81,-19.27,-20.19,0,*40
1498125990.6,813,20.56,74244.0,19.83,-18.73,-19.51,0,*45
1498125991.79,814,20.56,74242.3,19.87,-22.27,-23.39,0,*49
1498125993.0,815,20.56,74246.0,19.85,-22.93,-23.89,0,*4E
1498125994.26,816,20.56,74246.3,19.81,-24.31,-25.75,0,*42
1498125995.49,817,20.56,74246.5,19.79,-24.21,-25.49,0,*4A
1498125996.72,818,20.56,74246.5,19.77,-23.69,-24.35,0,*4A
1498125997.96,819,20.56,74248.3,19.75,-21.67,-22.73,0,*41
1498125999.18,820,20.56,74244.5,19.71,-20.93,-21.97,0,*4C
1498126000.4,821,20.56,74246.8,19.71,-19.51,-20.19,0,*4E
1498126001.6,822,20.56,74244.3,19.75,-19.75,-20.59,0,*4B
1498126002.84,823,20.56,74242.0,19.77,-21.23,-22.27,0,*4B
1498126004.05,824,20.56,74242.5,19.77,-20.73,-21.63,0,*4B
1498126005.31,825,20.56,74242.3,19.77,-21.67,-22.73,0,*4C
1498126006.53,826,20.56,74244.5,19.77,-20.89,-21.77,0,*49
1498126007.77,827,20.56,74240.5,19.77,-20.15,-21.13,0,*4F
1498126009.01,828,20.56,74244.0,19.77,-18.83,-19.61,0,*4A
1498126010.22,829,20.56,74244.5,19.79,-20.53,-21.47,0,*4C
1498126011.44,830,20.56,74238.8,19.79,-20.39,-21.27,0,*4E
1498126012.66,831,20.56,74242.0,19.79,-17.03,-17.87,0,*4D
1498126013.87,832,20.56,74242.5,19.83,-16.27,-16.93,0,*48
1498126015.11,833,20.56,74240.3,19.85,-17.69,-18.55,0,*40
1498126016.35,834,20.56,74242.0,19.87,-17.07,-17.97,0,*4C
1498126017.57,835,20.56,74240.5,19.89,-17.73,-18.65,0,*42
1498126018.81,836,20.56,74242.8,19.91,-17.45,-18.35,0,*48
1498126020.03,837,20.56,74246.5,19.95,-17.83,-18.55,0,*41
1498126021.24,838,20.56,74242.5,19.95,-17.41,-18.25,0,*47
1498126022.46,839,20.56,74240.5,20.01,-17.69,-18.65,0,*4F
1498126023.73,840,20.56,74248.0,20.01,-16.65,-17.45,0,*41
1498126024.97,841,20.56,74246.3,20.01,-17.25,-18.17,0,*4D
1498126026.23,842,20.56,74246.0,20.05,-16.31,-17.21,0,*44
1498126027.45,843,20.56,74248.8,20.07,-16.89,-17.79,0,*49
1498126028.63,844,20.56,74244.0,20.11,-18.17,-19.07,0,*47
1498126029.84,845,20.56,74246.5,20.11,-17.63,-18.49,0,*41
1498126031.12,846,20.56,74242.8,20.13,-17.07,-18.01,0,*4E
1498126032.33,847,20.56,74244.0,20.13,-16.93,-17.69,0,*42
1498126033.56,848,20.56,74246.5,20.15,-16.41,-17.21,0,*48
1498126034.81,849,20.56,74246.3,20.17,-15.89,-16.59,0,*42
1498126036.02,850,20.56,74246.5,20.23,-15.95,-16.69,0,*43
1498126037.27,851,20.56,74244.0,20.23,-15.57,-16.17,0,*45
1498126038.5,852,20.56,74246.8,20.25,-15.95,-16.69,0,*47
1498126039.73,853,20.56,74248.5,20.29,-16.27,-17.35,0,*48
1498126040.98,854,20.56,74244.5,20.31,-17.31,-18.31,0,*4B
1498126042.19,855,20.56,74244.0,20.31,-18.17,-19.03,0,*41
1498126043.44,856,20.56,74246.5,20.33,-17.55,-18.31,0,*49
1498126044.67,857,20.56,74246.3,20.31,-16.97,-17.87,0,*47
1498126045.92,858,20.56,74246.3,20.35,-16.65,-17.87,0,*41
1498126047.17,859,20.56,74242.5,20.35,-16.45,-17.25,0,*4A
1498126048.41,860,20.56,74240.5,20.35,-16.13,-16.89,0,*44
1498126049.65,861,20.56,74244.5,20.39,-15.11,-15.85,0,*47
1498126050.89,862,20.56,74244.3,20.47,-14.97,-15.71,0,*49
1498126052.14,863,20.56,74242.0,20.47,-15.49,-16.17,0,*49
1498126053.36,864,20.56,74242.0,20.49,-17.21,-18.11,0,*44
1498126054.57,865,20.56,74242.5,20.49,-17.93,-19.03,0,*4E
1498126055.76,866,20.56,74244.5,20.49,-17.35,-18.11,0,*43
1498126057.03,867,20.56,74244.5,20.51,-16.69,-17.55,0,*4C
1498126058.27,868,20.56,74246.5,20.51,-17.03,-17.83,0,*45
1498126059.54,869,20.56,74246.3,20.51,-17.41,-18.35,0,*40
1498126060.74,870,20.56,74246.8,20.53,-19.51,-20.63,0,*4D
1498126061.95,871,20.56,74250.3,20.51,-16.93,-17.69,0,*41
1498126063.19,872,20.56,74252.0,20.53,-20.49,-21.83,0,*43
1498126064.4,873,20.56,74250.5,20.51,-18.45,-19.37,0,*43
1498126065.66,874,20.56,74246.8,20.51,-18.89,-19.85,0,*4D
1498126066.9,875,20.56,74250.3,20.49,-18.01,-18.93,0,*43
1498126068.09,876,20.56,74246.5,20.53,-16.79,-17.69,0,*40
1498126069.29,877,20.56,74250.8,20.53,-16.79,-17.87,0,*41
1498126070.5,878,20.56,74252.5,20.53,-16.55,-17.25,0,*48
1498126071.74,879,20.56,74252.5,20.55,-17.21,-18.25,0,*42
1498126072.98,880,20.56,74252.0,20.57,-17.07,-17.97,0,*44
1498126074.23,881,20.56,74254.5,20.57,-16.31,-17.07,0,*48
1498126075.44,882,20.56,74258.8,20.57,-16.55,-17.63,0,*4B
1498126076.68,883,20.56,74256.8,20.59,-18.59,-19.71,0,*4B
1498126077.91,884,20.56,74256.5,20.59,-18.01,-18.99,0,*46
1498126079.19,885,20.56,74258.8,20.59,-17.41,-18.31,0,*4E
1498126080.4,886,20.56,74256.3,20.63,-17.49,-18.55,0,*4E
1498126081.64,887,20.56,74258.8,20.61,-18.07,-19.23,0,*48
1498126082.87,888,20.56,74262.3,20.61,-19.13,-20.29,0,*43
1498126084.11,889,20.56,74260.8,20.61,-18.45,-19.41,0,*44
1498126085.36,890,20.56,74262.3,20.61,-16.37,-17.41,0,*49
1498126086.57,891,20.56,74266.8,20.59,-19.07,-20.29,0,*45
1498126087.78,892,20.56,74264.8,20.61,-20.05,-21.39,0,*45
1498126089.03,893,20.56,74262.3,20.59,-22.77,-23.75,0,*42
1498126090.27,894,20.56,74262.5,20.55,-22.31,-23.13,0,*4B
1498126091.52,895,20.56,74258.3,20.53,-19.41,-20.49,0,*4F
1498126092.76,896,20.56,74258.5,20.51,-19.37,-20.35,0,*44
1498126093.98,897,20.56,74258.0,20.51,-19.13,-20.29,0,*4E
1498126095.26,898,20.63,74258.5,20.51,-17.41,-18.31,0,*4A
1498126096.47,899,20.56,74252.3,20.53,-17.25,-18.17,0,*4F
1498126097.7,900,20.63,74256.8,20.53,-16.51,-17.25,0,*42
1498126098.92,901,20.56,74256.8,20.57,-16.55,-17.45,0,*45
1498126100.19,902,20.56,74260.0,20.59,-16.27,-17.11,0,*4C
1498126101.45,903,20.63,74264.0,20.61,-17.11,-17.93,0,*48
1498126102.67,904,20.56,74258.0,20.61,-19.91,-21.39,0,*4C
1498126103.91,905,20.63,74258.3,20.59,-24.15,-26.07,0,*4E
1498126105.13,906,20.56,74258.3,20.51,-26.03,-27.29,0,*4D
1498126106.35,907,20.56,74248.5,20.45,-25.55,-27.03,0,*41
1498126107.6,908,20.63,74248.5,20.39,-26.77,-27.93,0,*4F
1498126108.8,909,20.56,74258.0,20.33,-24.05,-25.35,0,*4D
1498126110.01,910,20.63,74254.8,20.29,-26.23,-27.61,0,*4B
1498126111.2,911,20.56,74254.0,20.23,-25.39,-26.49,0,*43